Regional Weather Roundup
Issued by NWS

Home | Current Version | Previous Version | Graphics & Text | Print | Product List | Glossary On
Versions: 1 2 3 4 5 6 7 8 9 10 11 12 13 14 15 16 17 18 19 20 21 22 23 24 25 26 27 28 29 30 31 32 33 34 35 36 37 38 39 40 41 42 43 44 45 46 47 48 49 50
000
ASUS43 KDTX 261801
RWRMI
MICHIGAN HOURLY REGIONAL WEATHER ROUNDUP
NATIONAL WEATHER SERVICE DETROIT/PONTIAC MI
200 PM EDT MON JUN 26 2017

NOTE: "FAIR" INDICATES FEW OR NO CLOUDS BELOW 12,000 FEET WITH NO
SIGNIFICANT WEATHER AND/OR OBSTRUCTION TO VISIBILITY.

MIZ047>049-052>055-059>063-066>070-074>076-081>083-261900-
SOUTHEAST LOWER MICHIGAN

CITY           SKY/WX    TMP DP  RH WIND       PRES   REMARKS
ADRIAN         PTSUNNY   71  42  35 NW14      30.05F
6HR MIN TEMP:  57; 6HR MAX TEMP:  71;

ALMA           PTSUNNY   67  44  43 SW17G25   29.99S
ANN ARBOR      MOSUNNY   69  44  40 W17G29    30.02S
BAD AXE        PTSUNNY   64  47  53 W14G21    29.97F
6HR MIN TEMP:  56; 6HR MAX TEMP:  64;

CARO           MOSUNNY   67  50  53 W9G17     29.96F
DETROIT CITY   PTSUNNY   69  45  41 W18G24    30.00F
6HR MIN TEMP:  59; 6HR MAX TEMP:  69;

DETROIT        MOSUNNY   72  42  34 W20G30    30.01F
6HR MIN TEMP:  60; 6HR MAX TEMP:  72;

FLINT          PTSUNNY   69  49  48 W17G25    29.99F
6HR MIN TEMP:  56; 6HR MAX TEMP:  69; 6HR PCP: TRACE;

GROSSE ILE     PTSUNNY   68  43  40 W13G22    30.01S
6HR MIN TEMP:  60; 6HR MAX TEMP:  71;

HILLSDALE      CLOUDY    66  41  39 W12G23    30.05F
HOWELL         MOSUNNY   69  36  29 W23G30    30.01F
6HR MIN TEMP:  57; 6HR MAX TEMP:  69;


CITY           SKY/WX    TMP DP  RH WIND       PRES   REMARKS
JACKSON        CLOUDY    64  39  39 W15G22    30.04S
6HR MIN TEMP:  57; 6HR MAX TEMP:  70;

LAMBERTVILLE   PTSUNNY   68  44  41 W13G21    30.04S
6HR MIN TEMP:  60; 6HR MAX TEMP:  70;

LANSING        PTSUNNY   70  41  34 W23G33    30.02F
6HR MIN TEMP:  59; 6HR MAX TEMP:  70;

LAPEER         LGT RAIN  61  49  66 W8G26     30.00R
6HR MIN TEMP:  57; 6HR MAX TEMP:  67;

MASON          CLOUDY    64  43  45 W16G24    30.04R
MONROE         PTSUNNY   71  47  43 W14G22    30.03S
6HR MIN TEMP:  60; 6HR MAX TEMP:  71;

MT. CLEMENS    PTSUNNY   70  49  47 W7G23     29.98F
6HR MIN TEMP:  60; 6HR MAX TEMP:  70;

PONTIAC        PTSUNNY   68  45  43 W14       29.99F
6HR MIN TEMP:  57; 6HR MAX TEMP:  68;

PORT HOPE        N/A     63  47  55 W13G26    29.94S
6HR MIN TEMP:  58; 6HR MAX TEMP:  65; 6HR PCP:  0.02;

PORT HURON     PTSUNNY   66  45  45 W7        29.98F
TRI CITIES     RAIN      60  51  72 NW10G28   29.98S
6HR MIN TEMP:  58; 6HR MAX TEMP:  67; 6HR PCP:  0.02;

MIDLAND        FAIR      68  45  43 W17G24    29.96S
6HR MIN TEMP:  58; 6HR MAX TEMP:  68;

TROY           MOSUNNY   71  40  32 W12G25    30.02S
SAGINAW HB     HVY RAIN  57  43  58 NW20G33   29.97S
$$
MIZ043>046-050>051-056>058-064>065-071>073-077>080-261900-
SOUTHWEST LOWER MICHIGAN

CITY           SKY/WX    TMP DP  RH WIND       PRES   REMARKS
BATTLE CREEK   PTSUNNY   65  42  43 W17G25    30.06S
6HR MIN TEMP:  58; 6HR MAX TEMP:  70;

BENTON HARBOR  MOSUNNY   69  49  48 W15       30.07F
6HR MIN TEMP:  63; 6HR MAX TEMP:  70;

BIG RAPIDS     CLOUDY    60  43  52 W17G25    30.00R
6HR MIN TEMP:  54; 6HR MAX TEMP:  63;

COLDWATER      CLOUDY    66  41  39 W13       30.06F
6HR MIN TEMP:  59; 6HR MAX TEMP:  70;

FREMONT        CLOUDY    62  44  52 W15G23    30.03S
6HR MIN TEMP:  55; 6HR MAX TEMP:  64;

HOLLAND        SUNNY     66  48  52 W14G22    30.06F
6HR MIN TEMP:  60; 6HR MAX TEMP:  67;

GRAND RAPIDS   PTSUNNY   66  45  46 W20G29    30.03S
6HR MIN TEMP:  58; 6HR MAX TEMP:  67;

IONIA          FAIR      68  41  38 W14G29    30.01F
6HR MIN TEMP:  57; 6HR MAX TEMP:  68;

KALAMAZOO      PTSUNNY   67  41  38 W14G23    30.07R
6HR MIN TEMP:  59; 6HR MAX TEMP:  70; 6HR PCP: TRACE;

LUDINGTON      CLOUDY    58  48  68 W6        30.02S
6HR MIN TEMP:  56; 6HR MAX TEMP:  60;

MARSHALL       CLOUDY    66  41  40 W13       30.04F
6HR MIN TEMP:  58; 6HR MAX TEMP:  71;

MOUNT PLEASANT MOSUNNY   64  44  47 W10G21    29.97S
6HR MIN TEMP:  57; 6HR MAX TEMP:  65;

MUSKEGON       PTSUNNY   65  47  52 W17G24    30.05S
6HR MIN TEMP:  59; 6HR MAX TEMP:  66;

SOUTH HAVEN    MOSUNNY   66  51  59 W9G17     30.07S
$$
MIZ016>042-261900-
NORTHERN LOWER MICHIGAN

CITY           SKY/WX    TMP DP  RH WIND       PRES   REMARKS
ALPENA         CLOUDY    58  55  90 VRB3      29.92F
6HR MIN TEMP:  55; 6HR MAX TEMP:  60; 6HR PCP:  0.36;

BEAVER ISLAND  CLOUDY    57  53  84 W7        29.95S
6HR MIN TEMP:  53; 6HR MAX TEMP:  58;

BELLAIRE       CLOUDY    56  48  72 SW7       29.96S
6HR MIN TEMP:  54; 6HR MAX TEMP:  58;

CADILLAC       CLOUDY    56  46  67 W14       29.99R
CHARLEVOIX     CLOUDY    59  53  82 W14       29.98S
6HR MIN TEMP:  55; 6HR MAX TEMP:  59;

FRANKFORT      MOSUNNY   60  47  62 W12G20    30.00S
GAYLORD        PTSUNNY   59  47  64 W17G26    29.94S
6HR MIN TEMP:  53; 6HR MAX TEMP:  59; 6HR PCP:  0.09;

GRAYLING       CLOUDY    61  45  55 W15G21    29.96S
HARBOR SPRINGS CLOUDY    58  53  83 W9G17     29.94R
HOUGHTON LAKE  CLOUDY    59  44  57 W14       29.97S
6HR MIN TEMP:  54; 6HR MAX TEMP:  61;

MANISTEE       CLOUDY    59  48  67 W13       30.01S
OSCODA         PTSUNNY   68  47  46 SW18G24   29.92F
6HR MIN TEMP:  56; 6HR MAX TEMP:  68;

PELLSTON       LGT RAIN  56  53  90 W12       29.93S
6HR MIN TEMP:  54; 6HR MAX TEMP:  59; 6HR PCP:  0.57;

ROGERS CITY    LGT RAIN  55  53  92 CALM      29.92S
TRAVERSE CITY  CLOUDY    60  46  59 W16G22    29.96S
6HR MIN TEMP:  56; 6HR MAX TEMP:  60; 6HR PCP: TRACE;

$$
MIZ007>008-015-261900-
EASTERN UPPER MICHIGAN

CITY           SKY/WX    TMP DP  RH WIND       PRES   REMARKS
KINROSS        LGT RAIN  54  52  93 N6        29.93S
6HR MIN TEMP:  52; 6HR MAX TEMP:  55;

MACKINAC ISLAN DRIZZLE   54  54 100 NW3       29.92S
6HR MIN TEMP:  54; 6HR MAX TEMP:  56; 6HR PCP:  0.24;

NEWBERRY       CLOUDY    54  53  97 N7        29.95R
6HR MIN TEMP:  47; 6HR MAX TEMP:  54; 6HR PCP:  0.09;

S. S. MARIE    LGT RAIN  58  52  80 CALM      29.92S
6HR MIN TEMP:  54; 6HR MAX TEMP:  58; 6HR PCP:  0.92;

MUNISING         N/A     49  48  97 NW14      30.00R
6HR MIN TEMP:  48; 6HR MAX TEMP:  51; 6HR PCP:  0.03;

$$
MIZ004>006-011>014-085-261900-
CENTRAL UPPER MICHIGAN

CITY           SKY/WX    TMP DP  RH WIND       PRES   REMARKS
MANISTIQUE     CLOUDY    55  51  89 N8        29.96R
6HR MIN TEMP:  50; 6HR MAX TEMP:  57;

ESCANABA       CLOUDY    57  50  77 NW10      29.98S
6HR MIN TEMP:  52; 6HR MAX TEMP:  58;

MENOMINEE      LGT RAIN  54  51  90 N8        30.01R
6HR MIN TEMP:  51; 6HR MAX TEMP:  59; 6HR PCP:  0.02;

SAWYER-GWINN   DRIZZLE   50  48  93 N10       30.02R
$$
MIZ001>003-009>011-084-261900-
WESTERN UPPER MICHIGAN

CITY           SKY/WX    TMP DP  RH WIND       PRES   REMARKS
IRON MOUNTAIN  LGT RAIN  54  49  83 N12       30.01R
6HR MIN TEMP:  49; 6HR MAX TEMP:  56; 6HR PCP: TRACE;

HOUGHTON       CLOUDY    55  49  80 W15       30.04S
6HR MIN TEMP:  47; 6HR MAX TEMP:  55; 6HR PCP:  0.05;

COPPER HARBOR    N/A     57  52  83 N15       30.02F
6HR MIN TEMP:  47; 6HR MAX TEMP:  58; 6HR PCP:  0.04;

IRONWOOD       MOSUNNY   59  46  62 NW13G18   30.10S
6HR MIN TEMP:  47; 6HR MAX TEMP:  59;

$$

ABBREVIATIONS USED IN REMARKS
   TC - TEMPERATURE IN CELSIUS
  WCI - WIND CHILL INDEX
   HX - HEAT INDEX
  VSB - VISIBILITY




USA.gov is the U.S. government's official web portal to all federal, state and local government web resources and services.